Location: Unspecified
(64.9000°N, 0.0000°E)
Time: 05:36:40
(UTC+00:00)

Transit 2A Rocket - Pass Details

Date: 22 June 2019
Orbit: 588 x 915 km, 66.7° (Epoch: 22 July)

Event Time Altitude Azimuth Distance (km) Brightness Sun altitude
Rises 19:05:50 0° 307° (NW) 3,391 10.0 14.7°
Reaches altitude 10° 19:08:56 10° 292° (WNW) 2,394 10.7 14.4°
Maximum altitude 19:12:51 21° 246° (WSW) 1,698 7.5 14.0°
Drops below altitude 10° 19:16:33 10° 199° (SSW) 2,224 7.4 13.6°
Sets 19:19:18 0° 183° (S) 3,078 7.9 13.4°
